Content
SEND FEEDBACK

Daily
Averages
Monthly
Summary
United States of America

DULZURA, CALIFORNIA


Home > North America > United States > California
Elevation: 1620 feet     Latitude: 32 41N     Longitude: 116 40W

WEATHER
 
SELECT A DAY
Number of Records: 142,408;   Date Range: 8/26/97 - 11/27/14
 
SHARE

PRINT THIS DATA

[ ← Previous Day ]
WEATHER ALMANAC - JANUARY 31, 2013
[ Next Day → ]
[ °C ]   °F
Weather ElementAverageHighLow
Temperature53.4 °F64.9 °F (11:52 am)35.1 °F (11:52 pm)
Dewpoint29.1 °F30 °F (1:52 am)28 °F (4:52 am)
Humidity42.3 %76 % (11:52 pm)26 % (2:52 pm)
Barometer30.10 in30.15 in (9:52 am)30.06 in (2:52 pm)
Wind Speed10.9 mph24.2 mph (9:52 am)
Wind Gust31.1 mph (11:52 am)
Weather ElementAverage
Wind DirectionENE (69.1 °)

Weather ElementTotal
Precipitation---
Heating Degree Days15 (Base 65)
Averaged from 23 records on January 31, 2013
WEATHER CONDITIONS BREAKOUT
WIND DIRECTION BREAKOUT
WEATHER BY HOUR - JANUARY 31, 2013
[ °C ]   °F
Local TimeTemperatureDewpointHumidityBarometerVisibilityWind DirectionWind SpeedGust SpeedPrecipitationEventsConditions
1:52 AM42.1 °F30.0 °F62 %30.14 inNorth (360°)8.1 mph
2:52 AM41.0 °F30.0 °F65 %30.12 inCalm
3:52 AM50.0 °F28.9 °F44 %30.10 inNE (40°)6.9 mph
4:52 AM53.1 °F28.0 °F38 %30.10 inEast (80°)4.6 mph
5:52 AM53.1 °F28.0 °F38 %30.10 inNE (40°)5.8 mph
6:52 AM54.0 °F28.0 °F37 %30.12 inNE (40°)12.7 mph18.4 mph
7:52 AM57.9 °F28.9 °F33 %30.12 inENE (70°)16.1 mph24.2 mph
8:52 AM61.0 °F28.9 °F30 %30.13 inENE (60°)20.7 mph28.8 mph
9:52 AM62.1 °F28.9 °F29 %30.15 inENE (60°)24.2 mph29.9 mph
10:52 AM64.0 °F30.0 °F28 %30.13 inENE (60°)20.7 mph29.9 mph
11:52 AM64.9 °F30.0 °F27 %30.12 inENE (70°)24.2 mph31.1 mph
12:52 PM64.9 °F30.0 °F27 %30.09 inNE (50°)23.0 mph29.9 mph
1:52 PM64.0 °F28.9 °F27 %30.07 inENE (60°)20.7 mph28.8 mph
2:52 PM64.0 °F28.0 °F26 %30.06 inENE (70°)20.7 mph27.6 mph
3:52 PM63.0 °F28.9 °F28 %30.06 inENE (70°)19.6 mph25.3 mph
4:52 PM61.0 °F28.9 °F30 %30.07 inENE (70°)12.7 mph
5:52 PM55.0 °F30.0 °F38 %30.09 inCalm
6:52 PM52.0 °F30.0 °F43 %30.09 inCalm
7:52 PM46.0 °F30.0 °F54 %30.10 inNorth (350°)3.5 mph
8:52 PM42.1 °F30.0 °F62 %30.11 inCalm
9:52 PM39.9 °F28.9 °F65 %30.10 inNNE (20°)3.5 mph
10:52 PM39.0 °F28.9 °F67 %30.09 inCalm
11:52 PM35.1 °F28.0 °F76 %30.10 inNNE (20°)3.5 mph
Hourly data recorded from KCZZ, located miles away from Dulzura, California







STORIES FROM OUR PARTNERS